{"data":{"norad_id":64850,"epoch":"2026-09-20T19:53:02.012928Z","epoch_age_seconds":95901,"freshness":"FRESH","line1":"1 64850U 25152J   26263.82849552  .00009168  00000+0  28588-3 0  9997","line2":"2 64850  97.2846 114.3701 0001883  89.4991 270.6467 15.33453467 64876","mean_motion":15.33453467,"eccentricity":0.0001883,"inclination_deg":97.2846,"raan_deg":114.3701,"arg_perigee_deg":89.4991,"mean_anomaly_deg":270.6467,"bstar":0.00028588,"rev_number":6487,"period_min":93.905686151479,"perigee_km":464.22932252583,"apogee_km":466.80664299234,"semimajor_km":6843.6549827591,"source":"CELESTRAK","updated_at":"2026-09-21T09:00:35.449985Z"}}